Simultaneous Nadir Overpasses (SNOs) Predictions

Prediction of SNOs between NOAA-20 and NOAA-19 Satellite Orbit:

Table of predicted SNOs for the next 14.0 days since TLE Epoch: 5/10/2019
Index Date (NOAA-20) Time (NOAA-20) Lat,Lon (NOAA-20) SZA (NOAA-20 ) Date (NOAA-19) Time (NOAA-19) Lat,Lon (NOAA-19) SZA (NOAA-19 ) Distance(km) Time Diff (sec)
1 05/17/2019 04:35:49 80.11, 71.25 63.15 05/17/2019 04:34:42 80.10, 71.25 63.17 1.75 67
2 05/17/2019 05:26:34 -80.11,-121.48 116.86 05/17/2019 05:25:41 -80.10,-121.38 116.85 2.19 53
3 05/17/2019 06:17:19 80.11, 45.83 63.14 05/17/2019 06:16:43 80.09, 45.70 63.15 3.55 36
4 05/17/2019 07:08:04 -80.12,-146.89 116.87 05/17/2019 07:07:42 -80.10,-146.92 116.87 2.03 22
5 05/17/2019 07:58:49 80.12, 20.42 63.13 05/17/2019 07:58:43 80.11, 20.48 63.12 1.26 6
6 05/17/2019 08:49:34 -80.12,-172.30 116.88 05/17/2019 08:49:42 -80.12,-172.14 116.90 2.99 8
7 05/17/2019 09:40:19 80.12, -4.99 63.12 05/17/2019 09:40:44 80.11, -5.07 63.11 2.11 25
8 05/17/2019 10:31:04 -80.12, 162.29 116.89 05/17/2019 10:31:43 -80.12, 162.32 116.91 0.98 39
9 05/17/2019 11:21:49 80.12, -30.40 63.11 05/17/2019 11:22:44 80.13, -30.29 63.07 2.08 55




NCC Satellite Simultaneous Nadir Overpasses (SNOs) Prediction Service
